Location: Baia de Cri?
(46.1667°N, 22.7167°E)
Time: 09:19:15
(UTC+00:00)

Cosmos 2181 Rocket - Pass Details

Date: 15 January 2026
Orbit: 952 x 1013 km, 82.9° (Epoch: 9 February)

Event Time Altitude Azimuth Distance (km) Brightness Sun altitude
Rises 03:24:59 0° 352° (N) 3,716 6.9 -27.6°
Reaches altitude 10° 03:27:31 10° 355° (N) 2,771 6.3 -27.2°
Maximum altitude 03:33:54 72° 80° (E) 1,057 4.2 -26.1°
Drops below altitude 10° 03:40:17 10° 165° (SSE) 2,783 6.6 -25.0°
Sets 03:42:50 0° 167° (SSE) 3,732 7.3 -24.5°
